Weather History for Yakutat, AK

Change the Weather History Date:

Saturday, August 24, 2013

  Actual Average Record
Temperature  
Mean Temperature 57 °F 53 °F  
Max Temperature 62 °F 60 °F 78 °F (1987)
Min Temperature 51 °F 46 °F 29 °F (1974)
Degree Days  
Heating Degree Days 8 12  
Month to date heating degree days 218 255  
Since 1 June heating degree days 857 1013  
Since 1 July heating degree days 515 587  
Cooling Degree Days 0    
Month to date cooling degree days 0  
Year to date cooling degree days 0  
Since 1 June cooling degree days 0  
Growing Degree Days 6 (Base 50)    
Moisture  
Dew Point 53 °F    
Average Humidity 0    
Maximum Humidity 0    
Minimum Humidity 0    
Precipitation  
Precipitation 0.71 in 0.50 in 6.85 in (2005)
Month to date precipitation 8.12 10.37  
Year to date precipitation 76.20 77.60  
Snow  
Snow 0.00 in 0.00 in 0.00 in (2014)
Month to date snowfall T 0.0  
Since 1 June snowfall 0.0 0.0  
Since 1 July snowfall T 0.0  
Snow Depth 0.00 in    
Sea Level Pressure  
Sea Level Pressure 29.53 in    
Wind  
Wind Speed 4 mph (East)    
Max Wind Speed 9 mph    
Max Gust Speed 13 mph    
Visibility 8 miles    
Events Rain    
T = Trace of Precipitation, MM = Missing Value Source: NWS Daily Summary

Daily Weather History Graph

Daily Weather History Graph

Search for Another Location

Airport:

Trip Planner

Search our weather history database for the weather conditions in past years. The results will help you decide how hot, cold, wet, or windy it might be!

Date:

Astronomy

Aug. 24, 2013 Rise Set
Actual Time 5:57 AM AKDT 8:42 PM AKDT
Civil Twilight 5:10 AM AKDT 9:28 PM AKDT
Nautical Twilight 4:08 AM AKDT 10:30 PM AKDT
Astronomical Twilight 2:34 AM AKDT 12:00 AM AKDT
Moon 9:20 PM AKDT (8/24) 11:22 AM AKDT (8/24)
Length of Visible Light 16h 17m
Length of Day
14h 45m
Waning Gibbous, 83% of the Moon is Illuminated
Aug 24
Waning Gibbous
Aug 28
Last Quarter
Sep 5
New
Sep 12
First Quarter
Sep 19
Full

Hourly Weather History & Observations

Time (AKDT) Temp. Dew Point Humidity Pressure Visibility Wind Dir Wind Speed Gust Speed Precip Events Conditions
12:12 AM 53.6 °F 53.6 °F 100% 29.49 in 10.0 mi Calm Calm - N/A   Overcast
12:20 AM 53.6 °F 53.6 °F 100% 29.49 in 10.0 mi Calm Calm - N/A   Overcast
12:44 AM 51.8 °F 51.8 °F 100% 29.50 in 10.0 mi East 3.5 mph - N/A   Overcast
12:51 AM 51.8 °F 51.8 °F 100% 29.50 in 10.0 mi East 3.5 mph - N/A   Overcast
12:53 AM 52.0 °F 52.0 °F 100% 29.50 in 10.0 mi East 4.6 mph - N/A   Overcast
1:12 AM 51.8 °F 51.8 °F 100% 29.50 in 10.0 mi East 4.6 mph - N/A   Overcast
1:24 AM 51.8 °F 51.8 °F 100% 29.51 in 10.0 mi East 4.6 mph - N/A   Overcast
1:27 AM 51.8 °F 51.8 °F 100% 29.51 in 10.0 mi East 4.6 mph - N/A   Overcast
1:53 AM 52.0 °F 52.0 °F 100% 29.51 in 8.0 mi Calm Calm - 0.01 in Rain Light Rain
2:00 AM 51.8 °F 51.8 °F 100% 29.51 in 4.0 mi East 3.5 mph - 0.01 in Rain Light Rain
2:09 AM 51.8 °F 51.8 °F 100% 29.51 in 3.0 mi East 5.8 mph - 0.02 in Rain Light Rain
2:17 AM 51.8 °F 51.8 °F 100% 29.51 in 4.0 mi East 4.6 mph - 0.03 in Rain Light Rain
2:28 AM 51.8 °F 51.8 °F 100% 29.51 in 9.0 mi East 3.5 mph - 0.03 in Rain Light Rain
2:53 AM 51.1 °F 51.1 °F 100% 29.51 in 5.0 mi East 3.5 mph - 0.05 in Rain Light Rain
3:05 AM 51.8 °F 51.8 °F 100% 29.50 in 5.0 mi ESE 3.5 mph - 0.01 in Rain Light Rain
3:32 AM 51.8 °F 51.8 °F 100% 29.50 in 3.0 mi East 5.8 mph - 0.04 in Rain Light Rain
3:53 AM 51.1 °F 51.1 °F 100% 29.51 in 4.0 mi East 4.6 mph - 0.07 in Rain Light Rain
4:00 AM 51.8 °F 51.8 °F 100% 29.50 in 4.0 mi East 4.6 mph - 0.01 in Rain Light Rain
4:21 AM 51.8 °F 51.8 °F 100% 29.50 in 2.5 mi East 3.5 mph - 0.05 in Rain Light Rain
4:29 AM 51.8 °F 51.8 °F 100% 29.51 in 4.0 mi East 4.6 mph - 0.05 in Rain Light Rain
4:53 AM 52.0 °F 51.1 °F 97% 29.51 in 8.0 mi East 4.6 mph - 0.08 in Rain Light Rain
5:14 AM 51.8 °F 51.8 °F 100% 29.50 in 10.0 mi East 3.5 mph - 0.00 in   Overcast
5:27 AM 51.8 °F 51.8 °F 100% 29.50 in 10.0 mi East 5.8 mph - 0.00 in Rain Light Rain
5:36 AM 51.8 °F 51.8 °F 100% 29.51 in 10.0 mi East 5.8 mph - 0.00 in Rain Light Rain
5:53 AM 52.0 °F 51.1 °F 97% 29.51 in 10.0 mi East 4.6 mph - 0.00 in   Overcast
6:53 AM 52.0 °F 51.1 °F 97% 29.52 in 9.0 mi East 5.8 mph - N/A   Overcast
7:02 AM 51.8 °F 51.8 °F 100% 29.52 in 9.0 mi East 4.6 mph - N/A   Overcast
7:53 AM 52.0 °F 52.0 °F 100% 29.53 in 10.0 mi East 4.6 mph - N/A   Overcast
8:03 AM 53.6 °F 51.8 °F 94% 29.52 in 10.0 mi East 5.8 mph - N/A   Overcast
8:29 AM 53.6 °F 53.6 °F 100% 29.53 in 9.0 mi East 6.9 mph - N/A   Overcast
8:44 AM 53.6 °F 51.8 °F 94% 29.53 in 2.0 mi East 4.6 mph - 0.01 in Rain Light Rain
8:53 AM 53.1 °F 52.0 °F 96% 29.53 in 3.0 mi East 4.6 mph - 0.02 in Rain Light Rain
9:10 AM 53.6 °F 53.6 °F 100% 29.53 in 10.0 mi East 4.6 mph - 0.00 in   Overcast
9:53 AM 55.0 °F 54.0 °F 96% 29.54 in 10.0 mi East 5.8 mph - 0.00 in   Overcast
10:53 AM 57.0 °F 54.0 °F 89% 29.55 in 10.0 mi ESE 5.8 mph - N/A   Overcast
11:53 AM 59.0 °F 54.0 °F 83% 29.55 in 10.0 mi East 5.8 mph - N/A   Scattered Clouds
12:53 PM 60.1 °F 54.0 °F 80% 29.55 in 10.0 mi SE 6.9 mph - N/A   Overcast
1:53 PM 61.0 °F 53.1 °F 75% 29.55 in 10.0 mi East 5.8 mph - N/A   Scattered Clouds
2:53 PM 62.1 °F 55.0 °F 78% 29.55 in 10.0 mi Variable 3.5 mph - N/A   Clear
3:53 PM 61.0 °F 53.1 °F 75% 29.55 in 10.0 mi South 5.8 mph - N/A   Mostly Cloudy
4:49 PM 59.0 °F 53.6 °F 82% 29.55 in 10.0 mi South 3.5 mph - N/A   Overcast
4:53 PM 59.0 °F 54.0 °F 83% 29.55 in 10.0 mi South 4.6 mph - N/A   Overcast
5:43 PM 59.0 °F 53.6 °F 82% 29.55 in 10.0 mi Calm Calm - N/A   Mostly Cloudy
5:51 PM 59.0 °F 53.6 °F 82% 29.55 in 10.0 mi Calm Calm - N/A   Mostly Cloudy
5:53 PM 59.0 °F 54.0 °F 83% 29.55 in 10.0 mi Calm Calm - N/A   Mostly Cloudy
6:00 PM 59.0 °F 53.6 °F 82% 29.55 in 10.0 mi Calm Calm - N/A   Mostly Cloudy
6:31 PM 57.2 °F 53.6 °F 88% 29.55 in 9.0 mi ESE 3.5 mph - 0.01 in Rain Light Rain
6:53 PM 55.0 °F 53.1 °F 93% 29.56 in 10.0 mi East 4.6 mph - 0.02 in Rain Light Rain
7:53 PM 55.0 °F 53.1 °F 93% 29.56 in 8.0 mi ENE 3.5 mph - 0.10 in Rain Light Rain
8:53 PM 54.0 °F 53.1 °F 97% 29.56 in 10.0 mi NNE 3.5 mph - 0.07 in Rain Light Rain
9:53 PM 54.0 °F 53.1 °F 97% 29.57 in 10.0 mi Calm Calm - 0.09 in Rain Light Rain
10:53 PM 53.1 °F 53.1 °F 100% 29.59 in 8.0 mi Calm Calm - 0.11 in Rain Light Rain
11:53 PM 53.1 °F 53.1 °F 100% 29.59 in 10.0 mi Calm Calm - 0.06 in Rain Light Rain